RH
79 80 83 81 85 85 87 97 100 97 85 99 100 83 55 59 42 40 39 32 33 46 55 50 96 58 43 22 26 41 35 54 64 40 23 24 26 32 38 63 58 76 91 95
81 81 81 80 82 84 95 99 100 96 81 98 91 56 50 48 48 42 36 36 35 53 97 91 72 56 31 27 31 50 48 60 66 48 35 34 33 36 40 47 59 79 87 91
80 80 81 80 80 82 81 98 99 100 100 90 69 64 65 54 50 42 32 32 34 59 72 53 72 60 43 36 40 53 59 58 71 87 92 63 61 50 46 57 93 88 87 93
75 78 80 81 80 83 91 96 92 66 96 97 95 76 63 61 65 44 40 41 37 54 62 52 50 51 54 42 50 41 51 91 67 63 62 55 59 72 64 62 68 88 90 84
74 77 78 81 80 79 97 100 65 54 51 63 86 81 74 60 51 44 44 43 42 39 44 48 51 44 55 45 40 46 48 89 98 89 62 59 77 97 83 64 67 74 66 82
75 77 79 80 81 78 96 91 53 45 54 56 74 77 59 55 45 52 34 41 44 46 39 34 34 35 42 34 39 55 61 72 84 71 52 56 88 94 89 62 52 57 74 73
77 77 82 81 80 80 84 85 54 63 77 50 64 53 51 49 46 59 41 38 46 42 36 34 37 34 31 33 33 37 58 72 82 70 78 89 87 55 49 47 47 47 56 59
82 79 81 80 80 80 91 82 68 57 79 50 40 49 45 44 44 55 46 42 45 45 45 50 39 40 39 34 33 32 34 68 84 77 62 84 69 53 51 53 60 48 52 53
81 81 80 80 80 78 87 87 68 58 74 58 31 46 42 53 55 82 59 52 50 49 45 42 40 47 40 37 33 24 32 60 74 71 67 64 82 52 50 49 85 50 51 55
82 83 82 80 80 78 83 80 80 71 86 47 42 51 49 48 59 60 56 58 56 50 52 56 46 49 29 43 61 80 75 85 84 80 67 69 63 64 60 86 90 52 50 54
91 90 87 80 79 81 83 88 74 75 76 56 46 38 46 51 55 76 69 63 60 63 62 43 43 53 45 44 44 56 68 70 78 72 70 80 66 76 96 80 60 55 59 68
93 92 90 86 84 83 83 95 76 67 73 89 55 48 40 41 41 53 61 60 52 49 51 45 43 62 63 43 75 42 74 55 87 81 86 77 93 93 72 59 79 72 72 62
91 93 95 93 89 86 87 94 87 88 91 82 66 62 48 42 48 48 60 48 44 46 53 61 64 56 41 67 57 52 55 47 84 78 82 84 99 98 92 84 92 83 70 61
87 89 92 92 90 89 77 80 77 62 61 92 97 57 52 42 44 44 45 50 48 54 58 59 67 69 51 71 62 65 56 51 70 92 83 78 95 99 97 97 93 80 63 54
78 76 78 80 76 68 58 58 56 49 58 85 94 63 48 41 42 45 50 54 60 58 55 68 60 55 53 58 60 66 52 65 79 94 82 76 94 100 96 96 95 76 60 52
76 72 71 69 65 60 63 98 73 54 53 81 96 64 52 46 46 49 53 51 52 47 48 59 58 51 58 71 74 65 60 58 61 80 82 96 100 99 92 93 89 68 54 46
80 79 71 72 74 62 65 72 61 48 47 79 81 94 52 44 46 51 51 47 46 45 46 48 46 52 53 75 68 71 63 61 70 70 75 90 82 89 85 70 51 47 43 44
76 75 73 71 68 66 62 69 69 73 41 40 79 83 68 42 58 60 44 53 48 49 47 45 48 49 57 75 64 59 60 65 70 64 53 62 68 69 52 46 44 47 48 48
78 76 73 57 46 48 56 73 71 56 52 70 84 75 82 54 58 55 48 44 76 47 62 49 44 64 78 67 64 62 60 62 62 63 58 60 56 51 50 48 47 48 51 52
68 52 66 100 61 71 69 61 74 59 46 46 73 57 84 58 65 69 64 59 66 69 60 46 70 80 49 43 52 58 59 55 58 69 64 58 58 57 56 56 53 55 57 68
65 96 92 55 66 56 56 98 78 67 68 62 56 55 62 49 74 75 56 77 66 66 68 64 67 73 65 46 52 54 54 53 54 53 53 51 52 60 62 61 60 61 65 80
64 59 58 51 65 84 78 80 65 56 65 59 68 61 59 69 54 73 66 70 72 88 62 78 69 80 53 56 59 57 51 49 48 46 49 56 57 60 62 61 66 71 78 91
48 66 97 59 79 87 97 84 74 86 84 84 82 89 70 65 80 96 77 80 88 70 86 71 84 70 58 63 61 63 59 61 64 66 68 64 64 61 62 84 93 92 92 89
90 96 84 88 86 78 94 82 88 85 84 81 80 82 77 83 94 100 88 82 73 78 80 69 82 75 74 76 79 84 95 93 93 92 89 91 92 95 93 92 90 90 90 90
87 73 83 87 86 88 94 87 87 83 79 80 80 76 68 83 93 82 72 79 71 62 73 97 92 87 85 86 89 92 93 93 93 92 94 95 94 93 95 91 87 87 90 90
70 83 96 88 93 99 100 100 100 82 82 78 67 70 89 85 81 75 77 62 63 93 94 98 94 98 98 97 94 92 91 90 92 90 92 91 91 90 90 87 89 89 88 90
72 98 100 100 100 99 100 100 93 84 84 94 64 85 78 65 68 66 67 95 93 96 93 95 97 97 97 94 92 88 86 86 89 89 87 88 84 85 83 85 84 76 78 90
Wind_Speed
16 16 15 16 13 20 13 4 4 9 9 4 3 13 11 6 15 14 15 11 14 17 16 16 3 4 13 7 2 5 5 3 7 15 4 5 3 3 4 3 5 4 5 2
18 18 19 19 17 23 5 5 3 7 10 8 11 16 18 20 18 16 17 16 11 2 3 2 6 6 3 8 4 2 2 5 7 11 9 2 5 5 4 6 6 9 6 3
21 21 21 23 21 26 9 4 5 3 6 6 16 22 20 22 14 21 18 10 9 8 5 10 5 9 5 8 6 5 2 7 13 10 6 3 4 2 4 4 4 5 5 7
23 24 23 25 26 29 8 5 7 9 10 14 12 9 10 23 23 21 20 20 19 15 9 12 10 13 11 11 10 2 5 5 10 17 16 8 3 2 6 4 7 6 3 5
25 25 25 27 28 30 13 7 9 14 12 19 23 19 19 22 20 18 21 19 16 18 14 9 8 10 12 7 13 8 11 3 2 13 17 13 7 7 10 6 2 2 6 5
29 28 29 31 32 31 7 9 13 12 14 19 19 23 28 25 18 17 19 19 18 19 14 5 10 11 10 6 10 11 10 3 3 12 7 10 9 15 9 6 7 7 6 7
32 30 33 35 35 36 12 8 11 14 14 16 20 21 28 26 24 21 20 17 15 5 8 4 2 3 3 6 8 7 5 5 4 8 3 6 2 5 10 8 5 6 10 10
32 34 35 35 39 40 16 9 17 14 17 18 24 25 22 24 19 21 15 12 10 8 9 4 4 5 7 13 15 13 9 5 4 5 9 3 4 8 9 9 7 6 10 10
37 39 41 41 43 41 22 17 13 13 13 21 21 22 24 16 14 7 13 9 15 16 6 7 12 8 9 8 8 17 14 12 6 6 10 7 5 7 5 5 6 9 10 12
43 44 45 46 46 46 25 15 20 13 16 16 17 18 18 14 14 11 12 12 7 10 6 8 9 10 10 8 12 6 6 6 10 9 9 4 5 4 4 5 4 6 8 9
39 44 49 54 53 52 35 18 21 16 12 11 17 19 14 13 14 9 12 7 4 5 8 7 6 5 6 2 7 12 10 8 8 10 10 10 3 3 4 5 7 8 11 12
23 39 45 49 54 55 44 13 19 15 9 1 4 9 8 14 12 7 10 7 13 6 6 5 6 3 2 6 4 8 4 2 2 5 4 4 3 4 6 7 10 9 10 11
18 27 26 38 49 55 27 14 18 9 8 6 5 9 6 2 5 7 5 6 10 7 1 3 2 3 4 4 5 6 4 4 4 5 6 8 6 7 9 10 10 10 10 11
26 38 41 44 52 45 27 15 14 10 8 6 3 3 6 3 3 7 10 5 3 5 4 1 1 3 3 3 5 2 1 6 8 5 8 8 7 7 9 9 8 8 8 10
27 34 39 41 41 35 21 12 8 7 8 6 7 9 9 9 7 8 8 8 7 5 3 1 3 3 2 3 4 4 2 4 4 1 14 5 10 8 11 10 9 7 8 8
26 28 31 34 36 30 14 8 5 9 8 7 5 5 11 9 9 11 11 8 6 4 3 3 4 3 1 4 3 4 6 5 4 5 11 13 12 10 11 10 8 8 8 8
24 23 23 22 19 10 5 4 12 19 9 6 6 5 6 12 9 5 4 3 1 2 2 2 4 4 1 1 2 8 7 6 13 16 16 12 14 8 11 11 10 10 9 9
24 22 23 28 27 16 10 6 8 2 5 5 5 5 7 6 6 5 3 3 2 2 1 0 4 4 2 1 10 10 10 12 13 14 2 13 13 14 13 12 11 11 10 9
20 21 19 7 5 6 5 4 6 3 3 4 3 8 6 5 4 4 3 2 2 1 2 3 3 3 2 8 12 12 13 10 13 10 13 15 15 14 13 12 11 10 10 9
10 4 5 5 4 1 2 3 3 2 2 3 7 5 6 8 6 3 3 1 4 4 3 3 1 3 4 11 15 13 10 11 13 13 14 15 13 11 10 9 7 9 8 8
5 4 4 4 5 2 3 3 3 4 4 4 5 10 11 7 6 5 2 3 2 4 3 3 3 4 5 13 14 12 9 11 13 12 12 12 12 10 9 8 8 9 10 8
4 8 5 2 2 2 6 3 1 4 5 5 8 10 8 4 3 3 2 2 2 3 3 2 2 4 12 13 13 9 10 10 8 10 11 10 10 10 9 9 9 8 9 9
5 6 6 2 4 5 3 4 4 5 4 4 6 8 4 4 4 3 3 2 3 3 2 3 3 9 11 11 10 7 10 10 9 10 8 10 10 10 10 10 10 10 8 6
5 4 5 4 4 5 5 6 6 4 8 10 8 5 4 2 3 1 3 3 4 4 4 2 5 8 10 8 8 11 9 12 12 11 13 13 12 11 11 9 8 9 8 6
5 5 6 5 4 5 3 3 7 9 8 7 6 4 4 3 4 2 4 3 4 4 1 3 6 9 9 10 11 11 9 9 10 9 10 10 10 10 9 7 7 7 7 6
5 7 3 5 7 5 2 5 7 6 5 3 3 4 4 3 4 3 3 4 2 4 3 3 6 9 9 11 9 8 7 8 8 8 9 9 9 9 10 8 7 6 6 6
5 4 3 5 6 4 3 3 4 3 1 2 3 4 3 3 2 3 3 3 3 4 4 4 6 9 10 10 9 10 10 9 9 9 9 9 9 10 9 9 7 7 7 4
Wind_Direction
240 230 219 208 208 158 146 151 187 159 154 153 201 229 226 277 265 241 229 257 237 223 226 232 179 238 243 205 274 205 249 297 273 264 266 27 314 13 9 290 279 310 296 95
235 228 221 206 201 165 130 149 108 175 176 202 215 235 239 243 252 233 221 218 225 107 118 8 213 224 45 94 174 324 105 242 283 230 227 175 228 67 7 305 282 249 265 121
233 226 220 208 200 179 174 137 139 185 217 266 239 219 233 230 232 243 233 227 200 168 197 196 251 215 204 153 199 47 21 263 267 290 324 265 261 352 310 305 253 302 257 130
234 231 218 211 202 185 172 191 206 175 191 217 227 226 240 221 228 215 213 221 209 199 220 200 216 216 212 195 173 160 235 253 279 293 291 253 243 245 286 281 279 278 73 106
236 227 227 211 204 190 208 174 208 171 233 202 211 227 214 214 220 236 218 219 215 227 223 201 216 215 216 186 190 192 218 252 18 281 264 249 240 186 221 201 147 115 145 130
233 229 226 213 204 193 195 220 218 244 205 202 197 213 225 219 212 217 233 220 235 220 217 255 246 229 209 213 200 196 211 199 219 259 244 223 240 208 210 185 214 194 247 118
238 236 220 210 204 200 207 208 216 207 233 213 207 209 225 224 216 212 218 223 210 215 218 199 14 0 243 223 246 261 175 182 252 286 210 244 55 167 189 188 164 104 112 143
234 225 217 213 208 204 203 201 209 212 219 234 212 207 218 226 228 211 221 193 193 224 155 180 200 220 229 229 230 226 226 176 255 253 267 78 186 215 197 186 189 172 156 148
239 231 223 215 206 200 200 209 217 218 228 223 233 194 215 213 208 145 196 206 226 187 188 211 218 200 207 186 200 204 207 191 224 264 263 286 91 84 35 357 249 175 169 168
240 232 223 214 204 198 197 204 206 208 222 238 245 191 203 188 177 179 170 151 177 195 203 215 232 227 209 203 170 173 175 205 224 240 249 114 69 38 0 224 90 136 156 174
236 230 222 213 203 195 190 195 198 202 205 246 241 211 191 178 183 159 161 147 185 182 220 219 217 249 235 193 199 178 177 193 205 222 241 250 64 138 271 90 97 99 77 73
235 224 219 207 194 188 180 180 184 198 208 172 344 39 149 189 155 144 178 145 167 176 210 236 228 196 296 207 190 155 210 307 130 14 55 84 23 56 92 107 96 91 101 105
49 177 169 182 176 172 160 158 163 135 135 71 93 127 99 339 242 162 151 235 183 188 186 269 324 216 182 211 239 136 89 48 81 172 121 115 103 70 81 90 94 100 111 111
64 81 101 125 132 136 144 130 148 135 97 105 82 243 155 140 196 185 224 127 120 149 233 147 175 243 23 3 52 78 103 131 119 79 123 119 101 101 100 86 92 109 122 124
77 90 97 111 121 116 106 110 108 101 106 115 123 138 166 177 175 143 125 139 153 186 191 153 218 89 155 55 93 131 72 139 187 307 161 209 138 129 117 105 97 95 101 101
90 90 93 100 101 108 85 60 337 93 109 111 121 138 123 129 141 146 157 172 190 200 175 205 74 89 300 188 134 126 96 69 109 113 97 108 121 112 119 122 131 140 132 115
101 98 98 83 73 77 76 126 130 155 125 126 117 115 125 130 126 122 116 141 192 177 94 203 139 166 172 210 176 148 129 118 106 115 118 122 148 141 138 142 138 117 114 111
103 101 94 98 109 128 86 40 57 352 128 88 99 102 137 185 133 116 164 139 147 10 102 32 145 138 131 116 122 134 136 127 141 157 94 143 135 148 153 136 137 135 131 124
110 112 110 99 79 80 107 338 309 54 101 101 127 144 137 195 124 127 123 181 127 122 179 201 171 131 196 144 146 149 155 157 156 134 132 140 147 145 148 154 154 142 140 134
77 65 66 69 64 111 119 134 62 54 68 63 114 100 129 143 148 115 141 203 141 164 201 100 304 84 144 150 148 148 172 151 144 145 149 150 150 152 159 158 148 136 134 111
45 52 57 104 125 205 67 75 92 124 85 75 131 137 132 156 132 129 98 156 203 177 143 198 187 153 154 119 137 141 145 156 158 167 160 159 155 151 151 135 122 128 132 127
78 104 138 114 65 84 80 64 90 96 124 136 135 126 115 85 98 100 145 90 284 106 159 146 215 113 139 133 137 148 152 138 135 140 141 140 144 143 134 135 132 134 114 101
66 49 51 11 11 75 115 136 111 121 134 138 135 124 120 113 56 49 71 142 90 162 158 206 54 138 133 133 139 122 109 109 96 95 96 115 121 122 124 106 97 103 103 111
58 55 57 16 57 59 26 43 86 119 131 133 125 110 88 107 73 160 109 78 172 185 189 134 135 132 119 113 95 94 82 86 85 82 87 88 91 89 91 102 113 120 127 128
61 28 52 59 72 62 61 83 119 117 121 123 125 103 88 88 108 172 124 160 183 224 117 86 115 121 111 109 106 103 101 103 101 103 102 103 106 110 111 117 130 125 126 130
56 39 73 112 98 89 41 71 96 115 129 147 125 104 90 100 131 144 180 185 164 79 89 105 114 114 113 113 113 115 123 122 127 125 125 125 127 134 135 135 124 136 142 138
45 52 357 50 69 78 36 35 52 344 119 70 95 76 59 143 123 115 15 46 72 106 104 111 120 130 122 119 124 144 146 141 133 137 137 135 138 129 137 144 150 158 150 158